map of SMV home
Great Circle Mapper logo
SMV - Airport
Location
City:  St. Moritz, Switzerland
Name:Samedan
ICAO / IATA:LSZS / SMV

Details
Type:Airport (Flugplatz, Airfield)
Use:Public/Civil, Military, International (customs port of entry)
Latitude:4632'03"N (46.534075)
Longitude:953'03"E (9.884106)
Datum:WGS 1984
Elevation:5600 ft (1707 m)
Runways:1
Longest:5905 × 130 ft (1800 × 39.5 m), paved

Time
Time Zone:UTC+1 (DST+2)
Local Time:

Weather
METAR:LSZS 021650Z 35009KT 280V050 9999 BKN035 09/03 Q1020

Related Locations
Nearby:
Farthest:CHT: 12075 mi / 19433 km
Waitangi [Tuuta], Chatham Islands, NZ

Find:

   beyond  
but within

Other Information
Maps:
NOTAMs:
Links:
Sources:

  
flag of Switzerland   

Sectional Chart

Flight Planning
at skyvector.com

Satellite Image

Google Maps Satellite View

 

Copyright © 2004-2014 Karl L. Swartz. All rights reserved.
The Great Circle Mapper name and logo are trademarks of the Great Circle Mapper.
All other trademarks mentioned herein belong to their respective owners.
Please see credits for attibutions and further copyright information.

  Follow gcmap on Facebook Follow gcmap on Twitter

hCard Microformat

Geo Microformat